TimeEST,TemperatureF,Dew PointF,Humidity,Sea Level PressureIn,VisibilityMPH,Wind Direction,Wind SpeedMPH,Gust SpeedMPH,PrecipitationIn,Events,Conditions,WindDirDegrees,DateUTC
12:53 AM,46.0,34.0,63,30.23,10.0,WSW,5.8,-,N/A,,Clear,240,2013-11-10 05:53:00
1:53 AM,46.9,34.0,61,30.22,10.0,WSW,8.1,-,N/A,,Clear,240,2013-11-10 06:53:00
2:53 AM,46.0,33.1,61,30.22,10.0,WSW,5.8,-,N/A,,Clear,250,2013-11-10 07:53:00
3:53 AM,45.0,34.0,65,30.21,10.0,WSW,8.1,-,N/A,,Clear,240,2013-11-10 08:53:00
4:53 AM,45.0,33.1,63,30.22,10.0,SW,3.5,-,N/A,,Clear,230,2013-11-10 09:53:00
5:53 AM,45.0,34.0,65,30.22,10.0,West,4.6,-,N/A,,Clear,260,2013-11-10 10:53:00
6:53 AM,41.0,34.0,76,30.25,10.0,Calm,Calm,-,N/A,,Clear,0,2013-11-10 11:53:00
7:53 AM,43.0,35.1,74,30.27,10.0,Calm,Calm,-,N/A,,Clear,0,2013-11-10 12:53:00
8:53 AM,51.1,36.0,56,30.26,10.0,Calm,Calm,-,N/A,,Mostly Cloudy,0,2013-11-10 13:53:00
9:53 AM,60.1,34.0,38,30.25,10.0,NW,4.6,-,N/A,,Clear,310,2013-11-10 14:53:00
10:53 AM,64.9,32.0,29,30.24,10.0,NNE,6.9,-,N/A,,Clear,20,2013-11-10 15:53:00
11:53 AM,66.9,32.0,27,30.21,10.0,WNW,4.6,-,N/A,,Clear,300,2013-11-10 16:53:00
12:53 PM,70.0,30.9,24,30.18,8.0,WNW,8.1,-,N/A,,Clear,300,2013-11-10 17:53:00
1:53 PM,71.1,33.1,25,30.15,10.0,West,10.4,-,N/A,,Clear,260,2013-11-10 18:53:00
2:53 PM,72.0,28.9,20,30.14,10.0,WNW,6.9,-,N/A,,Clear,300,2013-11-10 19:53:00
3:53 PM,71.1,32.0,24,30.14,10.0,WSW,9.2,-,N/A,,Clear,250,2013-11-10 20:53:00
4:53 PM,68.0,35.1,30,30.15,10.0,WSW,5.8,-,N/A,,Clear,250,2013-11-10 21:53:00
5:53 PM,63.0,35.1,35,30.17,10.0,Calm,Calm,-,N/A,,Clear,0,2013-11-10 22:53:00
6:53 PM,54.0,36.0,51,30.20,10.0,Variable,6.9,-,N/A,,Clear,0,2013-11-10 23:53:00
7:53 PM,55.9,36.0,47,30.21,10.0,NNW,4.6,-,N/A,,Clear,340,2013-11-11 00:53:00
8:53 PM,57.9,33.1,39,30.21,10.0,North,8.1,-,N/A,,Clear,360,2013-11-11 01:53:00
9:53 PM,48.9,35.1,59,30.23,10.0,Calm,Calm,-,N/A,,Clear,0,2013-11-11 02:53:00
10:53 PM,45.0,35.1,68,30.24,10.0,WSW,4.6,-,N/A,,Clear,250,2013-11-11 03:53:00
11:53 PM,52.0,30.0,43,30.24,10.0,North,9.2,-,N/A,,Clear,10,2013-11-11 04:53:00